Regional Weather Roundup
Issued by NWS Albany, NY

Current Version | Previous Version | Text Only | Print | Product List | Glossary On
Versions: 1 2 3 4 5 6 7 8 9 10 11 12 13 14 15 16 17 18 19 20 21 22 23 24 25 26 27 28 29 30 31 32 33 34 35 36 37 38 39 40 41 42 43 44 45 46 47 48 49 50
000 ASUS41 KALY 030810 RWRALY NEW YORK STATE HOURLY WEATHER ROUNDUP NATIONAL WEATHER SERVICE ALBANY NY 300 AM EST TUE MAR 03 2015 NOTE: "FAIR" INDICATES FEW OR NO CLOUDS BELOW 12,000 FEET WITH NO SIGNIFICANT WEATHER AND/OR NO OBSTRUCTIONS TO VISIBILITY. NYZ032-033-038>043-046>054-057>066-NYZ062>081-030900- EAST CITY SKY/WX TMP DP RH WIND PRES REMARKS ALBANY CLEAR 16 4 59 W13 30.36S WCI 2 GLENS FALLS CLEAR 13 1 59 N3 30.34S POUGHKEEPSIE CLEAR 10 3 73 CALM 30.36F NEWBURGH CLEAR 7 1 78 CALM 30.35F MONTGOMERY CLEAR 10 2 69 S3 30.34F WHITE PLAINS CLEAR 14 5 67 CALM 30.34F NEW YORK CITY CLEAR 26 11 52 NW9 30.38F WCI 17 CENTRAL PARK CLEAR 25 8 48 CALM 30.40F $$ NYZ005>009-017-018-044>046-055-056-030900- CENTRAL CITY SKY/WX TMP DP RH WIND PRES REMARKS FULTON CLEAR 4 -1 80 CALM 30.37F SYRACUSE PTCLDY 4 4 100 CALM 30.36F ROME PTCLDY 0 -3 87 CALM 30.39S ELMIRA PTCLDY 3 1 91 CALM 30.35F BINGHAMTON CLEAR 12 7 80 W3 30.28S MONTICELLO CLEAR 12 5 73 W5 30.30R WCI 4 $$ NYZ026>034-041>043-030900- NORTH CITY SKY/WX TMP DP RH WIND PRES REMARKS WATERTOWN CLEAR 3 -1 83 CALM 30.37F FORT DRUM NOT AVBL MASSENA PTCLDY -3 -7 82 S3 30.38S SARANAC LAKE CLEAR -10 -15 78 CALM 30.22S PLATTSBURGH CLEAR 10 -1 61 W5 30.35R WCI 2 $$ NYZ001>004-010>016-019>021-030900- WEST CITY SKY/WX TMP DP RH WIND PRES REMARKS NIAGARA FALLS PTCLDY 8 3 80 S3 30.36F BUFFALO MOCLDY 7 3 84 SE5 30.35F WCI -2 DUNKIRK MOCLDY 1 -2 87 S3 30.37F JAMESTOWN MOCLDY 10 7 85 S3 30.27F WELLSVILLE PTCLDY 8 3 80 CALM 30.25F ROCHESTER PTCLDY 9 5 84 SW5 30.36F WCI 1 PENN YAN MOCLDY 15 7 70 S6 30.34F WCI 6 $$ KEY WCI = WIND CHILL INDEX VSB = VISIBILITY HX = HEAT INDEX $$

USA.gov is the U.S. government's official web portal to all federal, state and local government web resources and services.